Data for 11/07/2017

Time Sea-Level Adjusted Pressure Absolute Pressure Temperature Relative Humidity Dew Point   
(mb) (inHg) (mb) (inHg) (C) (F) (%) (C) (F)
00:05 1027 30.33 856 25.28 -15.3 4.4 85 -17.3 0.8
00:10 1026 30.3 856 25.28 -15.5 4.1 85 -17.5 0.6
00:15 1027 30.33 856 25.28 -15.5 4.1 85 -17.5 0.5
00:20 1027 30.33 856 25.28 -15.3 4.5 85 -17.3 0.8
00:25 1026 30.3 856 25.28 -15.1 4.9 85 -17.1 1.2
00:30 1026 30.3 856 25.28 -14.9 5.1 85 -16.9 1.5
00:35 1026 30.3 856 25.28 -14.8 5.3 87 -16.6 2.1
00:40 1026 30.3 856 25.28 -14.4 6.1 86 -16.2 2.9
00:45 1027 30.33 856 25.28 -14.1 6.5 86 -16 3.2
00:50 1027 30.33 856 25.28 -14.2 6.4 85 -16.2 2.8
00:55 1027 30.33 856 25.28 -14.5 6 84 -16.6 2.1
01:00 1026 30.3 856 25.28 -14.8 5.4 84 -16.9 1.6
01:05 1026 30.3 856 25.28 -14.9 5.2 85 -16.9 1.5
01:10 1026 30.3 856 25.28 -14.8 5.3 84 -16.9 1.6
01:15 1027 30.33 856 25.28 -14.7 5.5 84 -16.9 1.6
01:20 1026 30.3 856 25.28 -14.7 5.6 85 -16.7 2
01:25 1026 30.3 856 25.28 -14.3 6.3 84 -16.4 2.4
01:30 1026 30.3 856 25.28 -14.2 6.4 84 -16.4 2.5
01:35 1026 30.3 856 25.28 -14.2 6.4 84 -16.3 2.7
01:40 1026 30.3 856 25.28 -14 6.9 84 -16 3.1
01:45 1026 30.3 856 25.28 -13.8 7.3 84 -15.9 3.5
01:50 1026 30.3 856 25.28 -13.7 7.4 85 -15.7 3.7
01:55 1026 30.3 856 25.28 -13.5 7.7 85 -15.5 4.1
02:00 1026 30.3 856 25.28 -13.3 8.1 86 -15.2 4.6
02:05 1026 30.3 856 25.28 -12.9 8.7 85 -14.9 5.1
02:10 1026 30.3 856 25.28 -13.1 8.5 84 -15.3 4.5
02:15 1026 30.3 856 25.28 -13.2 8.2 85 -15.2 4.6
02:20 1026 30.3 856 25.28 -13.1 8.4 84 -15.2 4.6
02:25 1026 30.3 856 25.28 -13.2 8.3 85 -15.2 4.7
02:30 1026 30.3 856 25.28 -13.1 8.4 84 -15.2 4.6
02:35 1026 30.3 856 25.28 -13.3 8 85 -15.4 4.3
02:40 1026 30.3 856 25.28 -13.4 7.8 84 -15.6 3.8
02:45 1026 30.3 856 25.28 -13.7 7.4 83 -15.9 3.4
02:50 1026 30.3 856 25.28 -13.8 7.2 83 -16 3.2
02:55 1026 30.3 856 25.28 -13.8 7.1 83 -16.1 3
03:00 1026 30.3 856 25.28 -14 6.9 83 -16.2 2.8
03:05 1026 30.3 856 25.28 -14.2 6.5 83 -16.4 2.5
03:10 1026 30.3 856 25.28 -14.3 6.3 83 -16.5 2.2
03:15 1027 30.33 856 25.28 -14.3 6.3 83 -16.5 2.3
03:20 1026 30.3 856 25.28 -14.4 6.2 82 -16.8 1.8
03:25 1027 30.33 856 25.28 -14.6 5.7 83 -17 1.5
03:30 1026 30.3 856 25.28 -14.8 5.4 82 -17.2 1.1
03:35 1026 30.3 856 25.28 -15 5 83 -17.3 0.9
03:40 1027 30.33 856 25.28 -15.2 4.7 82 -17.5 0.5
03:45 1027 30.33 856 25.28 -15.4 4.2 82 -17.8 -0
03:50 1027 30.33 856 25.28 -15.8 3.6 82 -18.1 -0.6
03:55 1027 30.33 856 25.28 -16 3.2 82 -18.4 -1.2
04:00 1027 30.33 856 25.28 -16.3 2.6 82 -18.7 -1.6
04:05 1027 30.33 856 25.28 -16.4 2.5 84 -18.5 -1.4
04:10 1027 30.33 856 25.28 -16.4 2.6 83 -18.6 -1.4
04:15 1027 30.33 856 25.28 -16.3 2.6 83 -18.5 -1.4
04:20 1027 30.33 856 25.28 -16.3 2.7 84 -18.4 -1.1
04:25 1027 30.33 856 25.28 -16.2 2.9 84 -18.2 -0.8
04:30 1027 30.33 856 25.28 -16.1 3.1 85 -18 -0.4
04:35 1027 30.33 856 25.28 -15.8 3.5 85 -17.7 0.1
04:40 1027 30.33 856 25.28 -15.6 3.8 86 -17.5 0.4
04:45 1027 30.33 856 25.28 -15.5 4.1 86 -17.4 0.7
04:50 1027 30.33 856 25.28 -15.6 4 83 -17.9 -0.1
04:55 1027 30.33 856 25.28 -16.1 2.9 85 -18.1 -0.5
05:00 1027 30.33 856 25.28 -16.1 3 86 -17.9 -0.3
05:05 1027 30.33 856 25.28 -16 3.2 86 -17.8 -0.1
05:10 1027 30.33 856 25.28 -15.9 3.3 86 -17.8 -0
05:15 1027 30.33 856 25.28 -15.8 3.5 85 -17.8 0
05:20 1027 30.33 856 25.28 -15.7 3.7 86 -17.6 0.2
05:25 1027 30.33 856 25.28 -15.7 3.8 86 -17.5 0.4
05:30 1027 30.33 856 25.28 -15.6 4 86 -17.4 0.6
05:35 1027 30.33 856 25.28 -15.4 4.2 86 -17.3 0.8
05:40 1027 30.33 856 25.28 -15.4 4.3 86 -17.2 1
05:45 1027 30.33 856 25.28 -15.4 4.2 86 -17.3 0.8
05:50 1027 30.33 856 25.28 -15.9 3.4 85 -17.9 -0.2
05:55 1027 30.33 856 25.28 -15.9 3.4 87 -17.6 0.4
06:00 1027 30.33 856 25.28 -16 3.3 86 -17.8 0
06:05 1027 30.33 856 25.28 -15.8 3.5 87 -17.5 0.4
06:10 1027 30.33 856 25.28 -15.8 3.5 87 -17.5 0.4
06:15 1027 30.33 856 25.28 -15.7 3.8 89 -17.1 1.1
06:20 1027 30.33 856 25.28 -15.3 4.5 87 -16.9 1.5
06:25 1027 30.33 856 25.28 -15.5 4.2 88 -17.1 1.3
06:30 1027 30.33 856 25.28 -14.9 5.1 88 -16.5 2.3
06:35 1027 30.33 856 25.28 -14.7 5.5 86 -16.6 2.1
06:40 1027 30.33 856 25.28 -15.2 4.6 84 -17.3 0.8
06:45 1027 30.33 856 25.28 -15.7 3.7 87 -17.5 0.5
06:50 1027 30.33 856 25.28 -15.4 4.4 87 -17 1.4
06:55 1027 30.33 856 25.28 -14.9 5.1 87 -16.7 2
07:00 1027 30.33 856 25.28 -15 5.1 85 -17 1.4
07:05 1027 30.33 856 25.28 -15.2 4.7 86 -17 1.4
07:10 1027 30.33 856 25.28 -14.9 5.3 86 -16.7 2
07:15 1027 30.33 856 25.28 -14.6 5.8 86 -16.4 2.5
07:20 1027 30.33 856 25.28 -14.2 6.4 86 -16 3.1
07:25 1027 30.33 856 25.28 -14.2 6.5 85 -16.2 2.8
07:30 1027 30.33 856 25.28 -14.9 5.2 83 -17.2 1.1
07:35 1027 30.33 856 25.28 -15.5 4.1 85 -17.5 0.5
07:40 1027 30.33 856 25.28 -15.4 4.2 85 -17.3 0.8
07:45 1027 30.33 856 25.28 -15.2 4.7 85 -17.2 1.1
07:50 1027 30.33 856 25.28 -14.8 5.4 86 -16.7 1.9
07:55 1027 30.33 856 25.28 -14.4 6 85 -16.5 2.4
08:00 1027 30.33 856 25.28 -14.1 6.7 86 -15.9 3.4
08:05 1027 30.33 856 25.28 -13.3 8.2 83 -15.5 4
08:10 1027 30.33 856 25.28 -13.2 8.2 82 -15.6 3.9
08:15 1027 30.33 857 25.31 -13.1 8.4 82 -15.6 3.9
08:20 1027 30.33 857 25.31 -13.2 8.2 81 -15.8 3.6
08:25 1028 30.36 857 25.31 -13 8.7 83 -15.3 4.4
08:30 1028 30.36 857 25.31 -12.6 9.4 81 -15.2 4.7
08:35 1028 30.36 857 25.31 -12.4 9.6 81 -15.1 4.8
08:40 1028 30.36 857 25.31 -12.3 9.8 79 -15.2 4.6
08:45 1028 30.36 857 25.31 -12.8 9 80 -15.5 4
08:50 1028 30.36 857 25.31 -12.9 8.8 82 -15.4 4.4
08:55 1028 30.36 857 25.31 -12.3 9.8 82 -14.9 5.2
09:00 1028 30.36 857 25.31 -11.7 10.9 81 -14.3 6.2
09:05 1028 30.36 857 25.31 -10.9 12.3 79 -13.9 6.9
09:10 1028 30.36 857 25.31 -10.5 13.2 79 -13.5 7.7
09:15 1028 30.36 857 25.31 -10.1 13.9 77 -13.4 7.9
09:20 1028 30.36 857 25.31 -9.8 14.4 74 -13.6 7.5
09:25 1028 30.36 857 25.31 -10.1 13.9 74 -13.8 7.1
09:30 1028 30.36 857 25.31 -10 14.1 76 -13.5 7.7
09:35 1027 30.33 857 25.31 -9.6 14.7 74 -13.4 7.8
09:40 1027 30.33 857 25.31 -9.1 15.7 71 -13.5 7.8
09:45 1027 30.33 857 25.31 -8.9 16 70 -13.4 7.8
09:50 1027 30.33 857 25.31 -8.4 16.8 66 -13.6 7.5
09:55 1027 30.33 857 25.31 -8.3 17.1 68 -13.2 8.2
10:00 1027 30.33 857 25.31 -8.5 16.6 70 -13.1 8.4
10:05 1027 30.33 857 25.31 -8.8 16.1 71 -13.1 8.4
10:10 1027 30.33 857 25.31 -8.6 16.6 69 -13.3 8.1
10:15 1027 30.33 857 25.31 -7.5 18.5 63 -13.4 7.9
10:20 1027 30.33 857 25.31 -8.2 17.2 66 -13.5 7.8
10:25 1027 30.33 857 25.31 -7.5 18.5 62 -13.5 7.6
10:30 1027 30.33 857 25.31 -7.6 18.3 65 -13.1 8.4
10:35 1027 30.33 857 25.31 -7.9 17.8 63 -13.7 7.3
10:40 1027 30.33 857 25.31 -7.7 18.1 64 -13.4 7.8
10:45 1027 30.33 856 25.28 -7.8 18 66 -13.1 8.5
10:50 1027 30.33 856 25.28 -7.6 18.3 64 -13.3 8
10:55 1027 30.33 856 25.28 -7.5 18.6 63 -13.4 7.9
11:00 1027 30.33 856 25.28 -7.2 19.1 62 -13.2 8.2
11:05 1027 30.33 856 25.28 -6.9 19.5 63 -12.8 9
11:10 1027 30.33 856 25.28 -6.9 19.6 61 -13.1 8.3
11:15 1027 30.33 856 25.28 -6.8 19.7 63 -12.8 8.9
11:20 1027 30.33 856 25.28 -6.6 20.2 60 -13.1 8.5
11:25 1027 30.33 856 25.28 -6.5 20.4 60 -13.1 8.4
11:30 1027 30.33 856 25.28 -6.6 20.1 62 -12.7 9.1
11:35 1027 30.33 856 25.28 -6.3 20.6 58 -13.3 8
11:40 1027 30.33 856 25.28 -6.7 20 58 -13.7 7.4
11:45 1027 30.33 856 25.28 -7.8 17.9 67 -13 8.6
11:50 1027 30.33 856 25.28 -7.6 18.3 63 -13.6 7.5
11:55 1027 30.33 856 25.28 -7.3 18.9 63 -13.3 8.1
12:00 1027 30.33 856 25.28 -6.5 20.2 61 -13 8.7
12:05 1027 30.33 856 25.28 -6.3 20.7 60 -12.9 8.7
12:10 1027 30.33 856 25.28 -6.6 20.2 61 -12.8 8.9
12:15 1027 30.33 856 25.28 -6.6 20.2 61 -12.8 8.9
12:20 1027 30.33 856 25.28 -6.4 20.5 60 -13 8.6
12:25 1027 30.33 856 25.28 -6 21.2 59 -12.8 9
12:30 1027 30.33 856 25.28 -6.4 20.5 61 -12.8 9
12:35 1027 30.33 856 25.28 -6.4 20.5 63 -12.4 9.8
12:40 1027 30.33 856 25.28 -6.4 20.5 61 -12.8 9
12:45 1026 30.3 856 25.28 -6.7 20 61 -13.1 8.5
12:50 1026 30.3 856 25.28 -6.4 20.5 61 -12.8 9
12:55 1026 30.3 856 25.28 -6.6 20.2 63 -12.5 9.5
13:00 1026 30.3 856 25.28 -6.3 20.7 61 -12.7 9.2
13:05 1026 30.3 856 25.28 -6.7 19.9 64 -12.5 9.6
13:10 1026 30.3 856 25.28 -5.7 21.7 59 -12.5 9.4
13:15 1026 30.3 855 25.25 -5.5 22.2 57 -12.6 9.3
13:20 1026 30.3 855 25.25 -5.3 22.4 57 -12.5 9.4
13:25 1026 30.3 855 25.25 -5.1 22.8 56 -12.6 9.4
13:30 1026 30.3 855 25.25 -5.2 22.6 61 -11.6 11.1
13:35 1026 30.3 855 25.25 -5.4 22.2 59 -12.3 9.9
13:40 1026 30.3 855 25.25 -5.4 22.3 60 -12.1 10.2
13:45 1026 30.3 855 25.25 -5.4 22.3 58 -12.4 9.6
13:50 1026 30.3 855 25.25 -6 21.2 60 -12.5 9.5
13:55 1026 30.3 855 25.25 -6.2 20.9 62 -12.3 9.9
14:00 1026 30.3 855 25.25 -5.9 21.4 60 -12.5 9.4
14:05 1026 30.3 855 25.25 -5.7 21.8 58 -12.7 9.1
14:10 1026 30.3 855 25.25 -5.4 22.2 60 -12 10.4
14:15 1026 30.3 855 25.25 -5.2 22.6 58 -12.3 9.8
14:20 1026 30.3 855 25.25 -4.7 23.5 57 -12 10.3
14:25 1026 30.3 855 25.25 -5.4 22.2 59 -12.2 10
14:30 1026 30.3 855 25.25 -5.7 21.7 59 -12.5 9.5
14:35 1026 30.3 855 25.25 -5.7 21.8 60 -12.2 10
14:40 1026 30.3 855 25.25 -5.6 21.9 60 -12.2 10
14:45 1026 30.3 855 25.25 -5.1 22.8 57 -12.3 9.9
14:50 1025 30.27 855 25.25 -4.8 23.4 59 -11.7 11
14:55 1025 30.27 855 25.25 -5.3 22.5 58 -12.2 10
15:00 1025 30.27 855 25.25 -5.9 21.3 61 -12.2 10
15:05 1025 30.27 855 25.25 -5.6 22 59 -12.4 9.7
15:10 1025 30.27 854 25.22 -4.7 23.6 56 -12.2 10.1
15:15 1025 30.27 854 25.22 -4.3 24.2 56 -11.9 10.6
15:20 1025 30.27 854 25.22 -5.4 22.3 62 -11.6 11.2
15:25 1025 30.27 854 25.22 -4.9 23.2 58 -11.9 10.5
15:30 1025 30.27 854 25.22 -4.9 23.2 58 -11.9 10.6
15:35 1025 30.27 854 25.22 -5.4 22.3 61 -11.8 10.7
15:40 1025 30.27 855 25.25 -4.7 23.5 57 -12 10.4
15:45 1025 30.27 854 25.22 -4.5 23.9 57 -11.9 10.6
15:50 1025 30.27 854 25.22 -5.4 22.3 60 -12 10.4
15:55 1025 30.27 854 25.22 -5.6 22 60 -12.2 10.1
16:00 1025 30.27 854 25.22 -5.7 21.8 62 -11.9 10.5
16:05 1025 30.27 854 25.22 -6.3 20.7 63 -12.3 9.9
16:10 1025 30.27 854 25.22 -6.1 21 62 -12.2 10.1
16:15 1025 30.27 854 25.22 -6.2 20.8 64 -12 10.5
16:20 1025 30.27 854 25.22 -6.4 20.5 64 -12.2 10
16:25 1024 30.24 854 25.22 -6.4 20.5 65 -11.9 10.5
16:30 1024 30.24 853 25.19 -6.6 20 64 -12.4 9.6
16:35 1024 30.24 853 25.19 -7.3 18.9 66 -12.6 9.3
16:40 1024 30.24 853 25.19 -7.3 18.8 67 -12.4 9.7
16:45 1024 30.24 853 25.19 -7.7 18.1 70 -12.3 9.8
16:50 1024 30.24 853 25.19 -7.9 17.9 71 -12.2 10
16:55 1024 30.24 853 25.19 -7.9 17.7 73 -12 10.5
17:00 1024 30.24 853 25.19 -7.6 18.4 72 -11.8 10.7
17:05 1024 30.24 853 25.19 -7.2 19 71 -11.6 11.1
17:10 1024 30.24 853 25.19 -7.2 19 70 -11.8 10.8
17:15 1024 30.24 853 25.19 -7.3 18.9 71 -11.7 11
17:20 1024 30.24 853 25.19 -7.6 18.4 72 -11.7 10.9
17:25 1024 30.24 853 25.19 -8 17.7 74 -11.9 10.6
17:30 1024 30.24 853 25.19 -8 17.7 72 -12.2 10.1
17:35 1024 30.24 853 25.19 -8.4 16.9 72 -12.5 9.5
17:40 1024 30.24 853 25.19 -8.8 16.1 72 -12.9 8.7
17:45 1024 30.24 853 25.19 -9.2 15.4 73 -13.2 8.2
17:50 1024 30.24 853 25.19 -9.8 14.4 74 -13.5 7.7
17:55 1024 30.24 853 25.19 -10.2 13.7 77 -13.6 7.6
18:00 1024 30.24 853 25.19 -10.6 13 78 -13.7 7.3
18:05 1024 30.24 853 25.19 -10.6 12.8 78 -13.8 7.2
18:10 1024 30.24 853 25.19 -10.7 12.8 77 -13.9 7
18:15 1024 30.24 853 25.19 -11 12.3 79 -13.9 6.9
18:20 1024 30.24 853 25.19 -11 12.1 79 -14 6.8
18:25 1024 30.24 853 25.19 -11.2 11.9 79 -14.1 6.7
18:30 1024 30.24 853 25.19 -11.6 11.2 82 -14.1 6.6
18:35 1024 30.24 853 25.19 -11.5 11.2 81 -14.2 6.4
18:40 1024 30.24 853 25.19 -12 10.3 83 -14.3 6.2
18:45 1024 30.24 853 25.19 -12.3 9.9 84 -14.5 5.9
18:50 1024 30.24 853 25.19 -12.6 9.4 85 -14.7 5.6
18:55 1024 30.24 853 25.19 -12.7 9.2 85 -14.7 5.5
19:00 1024 30.24 853 25.19 -12.7 9.2 85 -14.7 5.6
19:05 1024 30.24 853 25.19 -12.5 9.5 85 -14.6 5.8
19:10 1024 30.24 853 25.19 -12.4 9.7 84 -14.6 5.7
19:15 1023 30.21 853 25.19 -12.5 9.5 85 -14.6 5.7
19:20 1023 30.21 852 25.16 -12.6 9.3 85 -14.7 5.6
19:25 1023 30.21 852 25.16 -12.5 9.5 85 -14.5 5.9
19:30 1023 30.21 852 25.16 -12.3 9.8 85 -14.4 6.1
19:35 1023 30.21 852 25.16 -12 10.4 84 -14.2 6.4
19:40 1023 30.21 852 25.16 -11.9 10.6 83 -14.1 6.6
19:45 1023 30.21 852 25.16 -11.9 10.7 84 -14 6.8
19:50 1023 30.21 852 25.16 -11.6 11.2 84 -13.8 7.1
19:55 1023 30.21 852 25.16 -11.3 11.6 83 -13.6 7.5
20:00 1023 30.21 852 25.16 -11.1 12.1 82 -13.5 7.7
20:05 1023 30.21 852 25.16 -10.9 12.4 82 -13.5 7.8
20:10 1023 30.21 852 25.16 -10.9 12.4 82 -13.4 7.9
20:15 1023 30.21 852 25.16 -10.9 12.4 83 -13.2 8.2
20:20 1023 30.21 853 25.19 -10.6 12.9 82 -13.1 8.4
20:25 1023 30.21 853 25.19 -10.4 13.2 82 -12.9 8.7
20:30 1023 30.21 853 25.19 -10.5 13.1 80 -13.4 7.9
20:35 1024 30.24 853 25.19 -10.9 12.5 80 -13.7 7.3
20:40 1024 30.24 853 25.19 -11.4 11.4 82 -14 6.9
20:45 1023 30.21 853 25.19 -11.8 10.7 82 -14.3 6.3
20:50 1023 30.21 852 25.16 -11.8 10.8 85 -13.9 7
20:55 1023 30.21 852 25.16 -11.1 12.1 84 -13.3 8.1
21:00 1023 30.21 852 25.16 -10.6 13 82 -13.1 8.5
21:05 1023 30.21 852 25.16 -9.9 14.2 82 -12.5 9.6
21:10 1023 30.21 852 25.16 -9.5 15 80 -12.2 10
21:15 1023 30.21 852 25.16 -9.4 15.2 79 -12.4 9.6
21:20 1023 30.21 852 25.16 -10 14 79 -13 8.7
21:25 1023 30.21 852 25.16 -10.6 13 81 -13.2 8.2
21:30 1023 30.21 852 25.16 -10.8 12.6 83 -13.1 8.5
21:35 1023 30.21 852 25.16 -10.8 12.6 83 -13.1 8.4
21:40 1023 30.21 852 25.16 -10.8 12.6 84 -12.9 8.7
21:45 1023 30.21 852 25.16 -10.7 12.8 83 -13 8.5
21:50 1023 30.21 852 25.16 -10.6 12.9 87 -12.4 9.6
21:55 1023 30.21 852 25.16 -9.5 14.8 82 -12 10.4
22:00 1023 30.21 852 25.16 -9.4 15.1 82 -11.9 10.6
22:05 1023 30.21 852 25.16 -9.5 14.9 82 -12 10.5
22:10 1023 30.21 852 25.16 -9.4 15.1 83 -11.8 10.7
22:15 1023 30.21 852 25.16 -9.1 15.6 82 -11.7 10.9
22:20 1023 30.21 852 25.16 -8.9 15.9 82 -11.5 11.3
22:25 1023 30.21 852 25.16 -8.6 16.5 80 -11.5 11.4
22:30 1023 30.21 852 25.16 -8.6 16.6 80 -11.4 11.5
22:35 1023 30.21 852 25.16 -8.8 16.2 79 -11.8 10.7
22:40 1023 30.21 852 25.16 -9.5 15 80 -12.4 9.7
22:45 1023 30.21 852 25.16 -10.1 13.9 81 -12.7 9.2
22:50 1023 30.21 852 25.16 -10.1 13.8 81 -12.8 8.9
22:55 1023 30.21 852 25.16 -10.4 13.2 82 -12.9 8.8
23:00 1023 30.21 852 25.16 -10.5 13.2 83 -12.8 8.9
23:05 1023 30.21 852 25.16 -10.3 13.4 84 -12.5 9.6
23:10 1022 30.18 852 25.16 -10.3 13.5 83 -12.7 9.1
23:15 1022 30.18 852 25.16 -10.7 12.7 84 -12.8 8.9
23:20 1022 30.18 851 25.13 -10.3 13.4 86 -12.2 10
23:25 1022 30.18 851 25.13 -9.9 14.2 85 -11.9 10.5
23:30 1022 30.18 851 25.13 -9.5 14.9 85 -11.5 11.3
23:35 1022 30.18 851 25.13 -8.8 16.2 82 -11.3 11.7
23:40 1022 30.18 851 25.13 -8.4 16.9 82 -10.9 12.4
23:45 1022 30.18 851 25.13 -8 17.5 80 -10.8 12.5
23:50 1022 30.18 851 25.13 -8 17.7 80 -10.9 12.4
23:55 1022 30.18 851 25.13 -8.2 17.2 80 -11.1 12
24:00 1022 30.18 851 25.13 -8.6 16.5 82 -11.2 11.8